Weather History for Albemarle, NC

Change the Weather History Date:

Monday, February 3, 2014

  Actual Average (KHBI) Record (KHBI)
Temperature  
Mean Temperature 56 °F -  
Max Temperature 70 °F 53 °F 80 °F (1989)
Min Temperature 43 °F 32 °F 13 °F (1942)
Degree Days  
Heating Degree Days 8    
Growing Degree Days 6 (Base 50)    
Moisture  
Dew Point 50 °F    
Average Humidity 88    
Maximum Humidity 100    
Minimum Humidity 64    
Precipitation  
Precipitation 0.20 in - - ()
Sea Level Pressure  
Sea Level Pressure 30.05 in    
Wind  
Wind Speed 7 mph (SSE)    
Max Wind Speed 20 mph    
Max Gust Speed 25 mph    
Visibility 9 miles    
Events Rain    
Averages and records for this station are not official NWS values.
T = Trace of Precipitation, MM = Missing Value Source: NWS Daily Summary

Daily Weather History Graph

Daily Weather History Graph

Search for Another Location

Airport:

Trip Planner

Search our weather history database for the weather conditions in past years. The results will help you decide how hot, cold, wet, or windy it might be!

Date:

Astronomy

Feb. 03, 2014 Rise Set
Actual Time 7:18 AM EST 5:50 PM EST
Civil Twilight 6:51 AM EST 6:17 PM EST
Nautical Twilight 6:21 AM EST 6:47 PM EST
Astronomical Twilight 5:51 AM EST 7:17 PM EST
Moon 9:30 AM EST (2/3) 10:27 PM EST (2/3)
Length of Visible Light 11h 25m
Length of Day
10h 32m
Waxing Crescent, 19% of the Moon is Illuminated
Feb 3
Waxing Crescent
Feb 6
First Quarter
Feb 14
Full
Feb 22
Last Quarter
Mar 1
New

Hourly Weather History & Observations

Time (EST) Temp. Windchill Dew Point Humidity Pressure Visibility Wind Dir Wind Speed Gust Speed Precip Events Conditions
12:15 AM 49.6 °F - 49.6 °F 100% 30.03 in 7.0 mi Calm Calm - N/A   Overcast
12:35 AM 50.9 °F - 50.9 °F 100% 30.03 in 10.0 mi Calm Calm - N/A   Overcast
12:55 AM 50.5 °F - 50.5 °F 100% 30.02 in 7.0 mi Calm Calm - N/A   Mostly Cloudy
1:15 AM 50.7 °F - 50.7 °F 100% 30.02 in 10.0 mi South 3.5 mph - N/A   Mostly Cloudy
1:35 AM 50.4 °F - 50.4 °F 100% 30.01 in 7.0 mi Calm Calm - N/A   Mostly Cloudy
1:55 AM 50.9 °F - 50.9 °F 100% 30.01 in 10.0 mi South 3.5 mph - N/A   Mostly Cloudy
2:15 AM 52.0 °F - 51.8 °F 99% 30.00 in 10.0 mi South 3.5 mph - N/A   Overcast
2:35 AM 52.3 °F - 52.2 °F 99% 29.99 in 10.0 mi South 5.8 mph - N/A   Overcast
2:55 AM 53.1 °F - 52.7 °F 99% 29.98 in 10.0 mi South 5.8 mph - N/A   Overcast
3:15 AM 53.6 °F - 52.5 °F 96% 29.97 in 10.0 mi South 8.1 mph - N/A   Overcast
3:35 AM 54.0 °F - 52.0 °F 93% 29.96 in 10.0 mi South 8.1 mph - N/A   Overcast
3:55 AM 54.5 °F - 51.8 °F 91% 29.95 in 10.0 mi South 10.4 mph - N/A   Overcast
4:15 AM 54.5 °F - 51.8 °F 91% 29.94 in 10.0 mi South 9.2 mph - N/A   Overcast
4:35 AM 55.0 °F - 52.2 °F 90% 29.94 in 10.0 mi South 10.4 mph - N/A   Overcast
4:55 AM 55.4 °F - 52.3 °F 89% 29.93 in 10.0 mi South 10.4 mph - N/A   Overcast
5:15 AM 55.6 °F - 52.7 °F 90% 29.93 in 10.0 mi South 9.2 mph - N/A   Overcast
5:35 AM 55.9 °F - 53.1 °F 90% 29.93 in 10.0 mi South 6.9 mph - N/A   Overcast
5:55 AM 56.1 °F - 53.6 °F 91% 29.94 in 10.0 mi SW 5.8 mph - N/A   Overcast
6:15 AM 56.5 °F - 54.5 °F 93% 29.93 in 10.0 mi South 8.1 mph - N/A   Overcast
6:35 AM 57.2 °F - 55.4 °F 94% 29.92 in 10.0 mi South 10.4 mph - N/A   Scattered Clouds
6:55 AM 58.1 °F - 56.3 °F 94% 29.93 in 10.0 mi South 10.4 mph - N/A   Mostly Cloudy
7:15 AM 58.6 °F - 57.2 °F 95% 29.93 in 10.0 mi SSW 11.5 mph 16.1 mph N/A   Overcast
7:35 AM 59.5 °F - 57.7 °F 94% 29.93 in 10.0 mi SSW 11.5 mph - N/A   Overcast
7:55 AM 59.9 °F - 58.1 °F 94% 29.94 in 10.0 mi SSW 13.8 mph 20.7 mph N/A   Overcast
8:15 AM 59.5 °F - 58.6 °F 97% 29.98 in 4.0 mi SSW 12.7 mph 17.3 mph N/A Rain Rain
8:35 AM - - - N/A% 29.98 in 4.0 mi SSW 11.5 mph - 0.04 in Rain Rain
8:55 AM - - - N/A% 29.99 in 4.0 mi SW 6.9 mph - 0.07 in   Heavy Drizzle
9:15 AM - - - N/A% 30.00 in 3.0 mi SSW 5.8 mph - 0.01 in   Drizzle
9:35 AM - - - N/A% 30.00 in 7.0 mi WSW 3.5 mph - 0.01 in   Overcast
9:55 AM 60.4 °F - 60.4 °F 100% 30.01 in 3.0 mi West 3.5 mph - 0.03 in Rain Heavy Rain
10:15 AM 60.8 °F - 60.8 °F 100% 30.01 in 4.0 mi West 3.5 mph - 0.04 in Rain Rain
10:35 AM - - - N/A% 29.98 in 5.0 mi SSE 6.9 mph - 0.07 in Rain Light Rain
10:55 AM - - - N/A% 29.97 in 5.0 mi South 6.9 mph - 0.10 in Rain Light Rain
11:15 AM - - - N/A% 29.98 in 7.0 mi SSW 9.2 mph - N/A Rain Light Rain
11:35 AM - - - N/A% 29.98 in 10.0 mi SSW 9.2 mph 17.3 mph N/A   Overcast
11:55 AM - - - N/A% 29.99 in 10.0 mi SSW 12.7 mph - N/A   Overcast
12:15 PM - - - N/A% 29.99 in 10.0 mi SW 10.4 mph - N/A   Overcast
12:35 PM 65.7 °F - 62.1 °F 88% 30.00 in 10.0 mi WSW 8.1 mph - N/A   Overcast
12:55 PM 67.6 °F - 61.5 °F 81% 29.99 in 10.0 mi WSW 5.8 mph - N/A   Overcast
1:15 PM 67.8 °F - 60.8 °F 78% 29.98 in 10.0 mi West 6.9 mph 17.3 mph N/A   Overcast
1:35 PM 67.6 °F - 59.7 °F 76% 29.98 in 10.0 mi WSW 8.1 mph 16.1 mph N/A   Overcast
1:55 PM 70.0 °F - 59.4 °F 69% 29.98 in 10.0 mi WSW 9.2 mph 16.1 mph N/A   Mostly Cloudy
2:15 PM 70.5 °F - 58.6 °F 66% 29.98 in 10.0 mi WSW 12.7 mph 19.6 mph N/A   Mostly Cloudy
2:35 PM 68.7 °F - 56.3 °F 64% 30.01 in 10.0 mi North 19.6 mph 25.3 mph N/A   Scattered Clouds
2:55 PM 54.3 °F - 50.2 °F 86% 30.04 in 10.0 mi NE 17.3 mph 21.9 mph N/A   Mostly Cloudy
3:15 PM 52.7 °F - 47.8 °F 84% 30.05 in 10.0 mi NNE 13.8 mph 23.0 mph N/A   Overcast
3:35 PM 52.5 °F - 46.9 °F 81% 30.06 in 10.0 mi NNE 11.5 mph 19.6 mph N/A   Overcast
3:55 PM 51.8 °F - 46.4 °F 82% 30.07 in 10.0 mi NNE 8.1 mph - N/A   Overcast
4:15 PM 51.8 °F - 46.2 °F 81% 30.08 in 10.0 mi NE 10.4 mph - N/A   Overcast
4:35 PM 51.3 °F - 45.7 °F 81% 30.09 in 10.0 mi NE 10.4 mph - N/A   Overcast
4:55 PM 50.9 °F - 45.5 °F 82% 30.10 in 10.0 mi NE 8.1 mph - N/A   Overcast
5:15 PM 50.2 °F - 45.5 °F 84% 30.12 in 10.0 mi NE 9.2 mph - N/A   Overcast
5:35 PM 50.0 °F - 45.1 °F 83% 30.13 in 10.0 mi NE 8.1 mph - N/A   Overcast
5:55 PM 49.6 °F - 45.3 °F 85% 30.13 in 10.0 mi NE 10.4 mph - N/A   Overcast
6:15 PM 49.3 °F - 44.4 °F 83% 30.14 in 10.0 mi NE 13.8 mph - N/A   Overcast
6:35 PM 49.1 °F - 44.1 °F 83% 30.16 in 10.0 mi NE 9.2 mph 17.3 mph N/A   Overcast
6:55 PM 48.4 °F - 43.7 °F 84% 30.18 in 10.0 mi NE 9.2 mph - N/A   Overcast
7:15 PM 48.2 °F - 43.7 °F 84% 30.19 in 10.0 mi NE 10.4 mph - N/A   Overcast
7:35 PM 47.5 °F - 43.7 °F 87% 30.20 in 10.0 mi NE 9.2 mph - N/A   Overcast
7:55 PM 46.8 °F - 43.3 °F 88% 30.20 in 10.0 mi NE 9.2 mph - N/A   Overcast
8:15 PM 46.6 °F - 42.8 °F 87% 30.21 in 10.0 mi NE 16.1 mph 21.9 mph N/A   Overcast
8:35 PM 46.2 °F 41.2 °F 42.3 °F 86% 30.21 in 10.0 mi NE 10.4 mph - N/A   Mostly Cloudy
8:55 PM 46.0 °F 40.2 °F 42.1 °F 86% 30.22 in 10.0 mi ENE 12.7 mph 16.1 mph N/A   Mostly Cloudy
9:15 PM 45.9 °F 41.2 °F 41.9 °F 86% 30.24 in 10.0 mi NE 9.2 mph - N/A   Overcast
9:35 PM 45.9 °F 41.2 °F 41.4 °F 84% 30.25 in 10.0 mi ENE 9.2 mph 16.1 mph N/A   Overcast
9:55 PM 45.3 °F 40.1 °F 41.0 °F 85% 30.26 in 10.0 mi NE 10.4 mph - N/A   Overcast
10:15 PM 45.5 °F 41.3 °F 40.6 °F 83% 30.27 in 10.0 mi NE 8.1 mph - N/A   Overcast
10:35 PM 44.8 °F 38.3 °F 39.7 °F 82% 30.27 in 10.0 mi NE 13.8 mph 18.4 mph N/A   Overcast
10:55 PM 43.9 °F 39.9 °F 39.6 °F 85% 30.27 in 10.0 mi NE 6.9 mph - N/A   Mostly Cloudy
11:15 PM 43.7 °F 39.7 °F 39.0 °F 84% 30.27 in 10.0 mi NE 6.9 mph - N/A   Mostly Cloudy
11:35 PM 43.7 °F 37.3 °F 36.5 °F 76% 30.28 in 10.0 mi NE 12.7 mph 18.4 mph N/A   Overcast
11:55 PM 43.0 °F 38.2 °F 36.3 °F 77% 30.27 in 10.0 mi ENE 8.1 mph - N/A   Overcast